User: anonymous   Login
Location: ?ejeti?ky
(50.4060°N, 14.9016°E)
Time: 12:14:11
(UTC+00:00)
Language:

STARLINK-1282 - Orbit

View from above orbital plane
View from above orbital plane
View from above satellite
View from above satellite

Ground track
Ground track

The orbit data is extracted from the following two-line orbital elements,

1 45409C 20019BB  20227.13172318 -.00001603  00000-0 -10978-3 0  2277
2 45409  52.9992 265.6111 0001079  70.4434  32.6356 15.05589476    17
Epoch (UTC): 14 August 2020 03:09:40
Eccentricity: 0.0001079
inclination: 52.9992°
perigee height: 549 km
apogee height: 550 km
right ascension of ascending node: 265.6111°
argument of perigee: 70.4434°
revolutions per day: 15.05589476
mean anomaly at epoch: 32.6356°
orbit number at epoch: 1

The dashed part of the orbit path shows where the satellite is in the earth's shadow,  

DLR